When you browse on this site, cookies collect data to enhance your experience and personalize the content and advertising you see.
Visit our Privacy Policy to learn more. By continuing to use the site, you agree to this use of cookies and data.
  • In France
  • List of Countries
  • For 7 days
  • Water Temperature
  • Weather Map
  • Weather Widgets
  • user-avatar
    Login

    Hourly Weather Igls

    Today, 22 August, Thursday

    Time Temperature Precipitation Wind Pressure Humidity
    00:00 +14°C° 0 mm 1 mps 690 mmHg 95%
    01:00 +14°C° 0 mm 1 mps 690 mmHg 93%
    02:00 +14°C° 0 mm 1 mps 690 mmHg 93%
    03:00 +13°C° 0 mm 0 mps 689 mmHg 93%
    04:00 +13°C° 0 mm 0 mps 689 mmHg 93%
    05:00 +14°C° 0 mm 0 mps 690 mmHg 90%
    06:00 +15°C° 0 mm 0 mps 690 mmHg 88%
    07:00 +16°C° 0 mm 0 mps 691 mmHg 83%
    08:00 +18°C° 0.1 mm 0 mps 691 mmHg 76%
    09:00 +22°C° 0.1 mm 1 mps 691 mmHg 70%
    10:00 +24°C° 0.1 mm 1 mps 691 mmHg 63%
    11:00 +24°C° 0.6 mm 1 mps 691 mmHg 65%
    12:00 +24°C° 0.6 mm 1 mps 691 mmHg 67%
    13:00 +25°C° 0.6 mm 1 mps 691 mmHg 69%
    14:00 +24°C° 1.1 mm 1 mps 691 mmHg 71%
    15:00 +24°C° 1.1 mm 1 mps 691 mmHg 73%
    16:00 +23°C° 1.1 mm 2 mps 690 mmHg 75%
    17:00 +22°C° 0.6 mm 1 mps 690 mmHg 81%
    18:00 +20°C° 0.6 mm 1 mps 690 mmHg 86%
    19:00 +19°C° 0.6 mm 1 mps 690 mmHg 92%
    20:00 +16°C° 0 mm 0 mps 690 mmHg 93%
    21:00 +15°C° 0 mm 0 mps 690 mmHg 93%
    22:00 +14°C° 0 mm 0 mps 691 mmHg 94%
    23:00 +14°C° 0 mm 0 mps 690 mmHg 93%

    Tomorrow, 23 August, Friday

    Time Temperature Precipitation Wind Pressure Humidity
    00:00 +14°C° 0 mm 0 mps 690 mmHg 93%
    01:00 +13°C° 0 mm 0 mps 690 mmHg 92%
    02:00 +13°C° 0 mm 0 mps 690 mmHg 92%
    03:00 +13°C° 0 mm 0 mps 690 mmHg 91%
    04:00 +13°C° 0 mm 0 mps 690 mmHg 91%
    05:00 +14°C° 0 mm 0 mps 690 mmHg 89%
    06:00 +16°C° 0 mm 0 mps 690 mmHg 87%
    07:00 +17°C° 0 mm 0 mps 690 mmHg 85%
    08:00 +21°C° 0.1 mm 1 mps 691 mmHg 78%
    09:00 +23°C° 0.1 mm 1 mps 691 mmHg 71%
    10:00 +25°C° 0.1 mm 1 mps 692 mmHg 64%
    11:00 +25°C° 0.5 mm 1 mps 691 mmHg 62%
    12:00 +26°C° 0.5 mm 1 mps 691 mmHg 59%
    13:00 +26°C° 0.5 mm 2 mps 691 mmHg 57%
    14:00 +26°C° 0.8 mm 2 mps 691 mmHg 63%
    15:00 +25°C° 0.8 mm 2 mps 690 mmHg 68%
    16:00 +25°C° 0.8 mm 2 mps 690 mmHg 73%
    17:00 +23°C° 0.8 mm 1 mps 690 mmHg 79%
    18:00 +22°C° 0.8 mm 1 mps 689 mmHg 84%
    19:00 +18°C° 0.8 mm 0 mps 689 mmHg 90%
    20:00 +19°C° 0.1 mm 1 mps 689 mmHg 90%
    21:00 +19°C° 0.1 mm 1 mps 689 mmHg 89%
    22:00 +18°C° 0.1 mm 1 mps 689 mmHg 89%
    23:00 +18°C° 0 mm 1 mps 689 mmHg 88%

    Day after tomorrow, 24 August, Saturday

    Time Temperature Precipitation Wind Pressure Humidity
    00:00 +16°C° 0 mm 1 mps 689 mmHg 88%
    01:00 +16°C° 0 mm 1 mps 689 mmHg 87%
    02:00 +16°C° 0 mm 1 mps 688 mmHg 86%
    03:00 +16°C° 0 mm 1 mps 688 mmHg 86%
    04:00 +15°C° 0 mm 1 mps 688 mmHg 85%
    05:00 +16°C° 0 mm 1 mps 688 mmHg 83%
    06:00 +19°C° 0 mm 1 mps 689 mmHg 82%
    07:00 +20°C° 0 mm 1 mps 689 mmHg 80%
    08:00 +22°C° 0 mm 1 mps 689 mmHg 69%
    09:00 +25°C° 0 mm 1 mps 690 mmHg 59%
    10:00 +27°C° 0 mm 1 mps 690 mmHg 49%
    11:00 +28°C° 0 mm 1 mps 690 mmHg 47%
    12:00 +28°C° 0 mm 1 mps 690 mmHg 45%
    13:00 +29°C° 0 mm 1 mps 690 mmHg 43%
    14:00 +28°C° 0.5 mm 2 mps 689 mmHg 50%
    15:00 +27°C° 0.5 mm 2 mps 689 mmHg 57%
    16:00 +26°C° 0.5 mm 2 mps 689 mmHg 63%
    17:00 +24°C° 0.8 mm 1 mps 688 mmHg 71%
    18:00 +22°C° 0.8 mm 1 mps 688 mmHg 79%
    19:00 +18°C° 0.8 mm 0 mps 687 mmHg 87%
    20:00 +20°C° 0.2 mm 1 mps 688 mmHg 87%
    21:00 +19°C° 0.2 mm 1 mps 688 mmHg 87%
    22:00 +18°C° 0.2 mm 1 mps 688 mmHg 87%
    23:00 +18°C° 0 mm 1 mps 688 mmHg 87%

    25 August, Sunday

    Time Temperature Precipitation Wind Pressure Humidity
    00:00 +18°C° 0 mm 1 mps 687 mmHg 87%
    01:00 +16°C° 0 mm 1 mps 687 mmHg 87%
    02:00 +16°C° 0 mm 1 mps 687 mmHg 87%
    03:00 +16°C° 0 mm 1 mps 687 mmHg 87%
    04:00 +16°C° 0 mm 1 mps 687 mmHg 87%
    05:00 +18°C° 0 mm 1 mps 687 mmHg 85%
    06:00 +19°C° 0 mm 1 mps 687 mmHg 83%
    07:00 +20°C° 0 mm 1 mps 688 mmHg 81%
    08:00 +22°C° 0.1 mm 1 mps 688 mmHg 72%
    09:00 +25°C° 0.1 mm 1 mps 688 mmHg 64%
    10:00 +27°C° 0.1 mm 1 mps 689 mmHg 56%
    11:00 +27°C° 0.6 mm 1 mps 689 mmHg 55%
    12:00 +28°C° 0.6 mm 1 mps 689 mmHg 54%
    13:00 +28°C° 0.6 mm 1 mps 688 mmHg 53%
    14:00 +27°C° 1 mm 1 mps 688 mmHg 57%
    15:00 +27°C° 1 mm 1 mps 688 mmHg 61%
    16:00 +26°C° 1 mm 1 mps 688 mmHg 66%
    17:00 +24°C° 1.2 mm 1 mps 687 mmHg 73%
    18:00 +22°C° 1.2 mm 1 mps 687 mmHg 81%
    19:00 +20°C° 1.2 mm 1 mps 687 mmHg 88%
    20:00 +20°C° 0.4 mm 1 mps 687 mmHg 88%
    21:00 +19°C° 0.4 mm 1 mps 687 mmHg 88%
    22:00 +19°C° 0.4 mm 1 mps 687 mmHg 87%
    23:00 +18°C° 0 mm 1 mps 687 mmHg 88%

    26 August, Monday

    Time Temperature Precipitation Wind Pressure Humidity
    00:00 +18°C° 0 mm 1 mps 687 mmHg 88%
    01:00 +16°C° 0 mm 1 mps 687 mmHg 88%
    02:00 +16°C° 0 mm 1 mps 687 mmHg 88%
    03:00 +16°C° 0 mm 1 mps 686 mmHg 87%
    04:00 +16°C° 0 mm 1 mps 686 mmHg 87%
    05:00 +18°C° 0 mm 1 mps 686 mmHg 86%
    06:00 +19°C° 0 mm 1 mps 687 mmHg 84%
    07:00 +20°C° 0 mm 1 mps 687 mmHg 83%
    08:00 +23°C° 0 mm 1 mps 687 mmHg 73%
    09:00 +25°C° 0 mm 1 mps 688 mmHg 64%
    10:00 +27°C° 0 mm 1 mps 688 mmHg 55%
    11:00 +28°C° 0.3 mm 1 mps 688 mmHg 52%
    12:00 +29°C° 0.3 mm 1 mps 688 mmHg 49%
    13:00 +30°C° 0.3 mm 1 mps 688 mmHg 47%
    14:00 +29°C° 0.9 mm 1 mps 687 mmHg 52%
    15:00 +28°C° 0.9 mm 1 mps 687 mmHg 58%
    16:00 +27°C° 0.9 mm 1 mps 686 mmHg 64%
    17:00 +25°C° 1.1 mm 1 mps 686 mmHg 72%
    18:00 +23°C° 1.1 mm 1 mps 686 mmHg 80%
    19:00 +21°C° 1.1 mm 1 mps 685 mmHg 88%
    20:00 +20°C° 0.4 mm 1 mps 686 mmHg 89%
    21:00 +19°C° 0.4 mm 1 mps 686 mmHg 89%
    22:00 +19°C° 0.4 mm 1 mps 686 mmHg 90%
    23:00 +17°C° 0 mm 2 mps 686 mmHg 89%

    27 August, Tuesday

    Time Temperature Precipitation Wind Pressure Humidity
    00:00 +17°C° 0 mm 2 mps 686 mmHg 89%
    01:00 +17°C° 0 mm 2 mps 685 mmHg 89%
    02:00 +17°C° 0 mm 2 mps 685 mmHg 89%
    03:00 +16°C° 0 mm 2 mps 685 mmHg 89%
    04:00 +16°C° 0 mm 2 mps 685 mmHg 89%
    05:00 +17°C° 0 mm 2 mps 685 mmHg 87%
    06:00 +19°C° 0 mm 1 mps 686 mmHg 85%
    07:00 +20°C° 0 mm 1 mps 686 mmHg 83%
    08:00 +22°C° 0 mm 1 mps 686 mmHg 73%
    09:00 +25°C° 0 mm 1 mps 687 mmHg 63%
    10:00 +27°C° 0 mm 1 mps 687 mmHg 52%
    11:00 +28°C° 0.1 mm 1 mps 687 mmHg 50%
    12:00 +28°C° 0.1 mm 1 mps 687 mmHg 48%
    13:00 +29°C° 0.1 mm 1 mps 687 mmHg 46%
    14:00 +28°C° 0.4 mm 1 mps 686 mmHg 49%
    15:00 +28°C° 0.4 mm 1 mps 686 mmHg 53%
    16:00 +27°C° 0.4 mm 2 mps 686 mmHg 57%
    17:00 +25°C° 0.7 mm 1 mps 685 mmHg 67%
    18:00 +23°C° 0.7 mm 1 mps 685 mmHg 76%
    19:00 +21°C° 0.7 mm 1 mps 685 mmHg 86%
    20:00 +20°C° 0.4 mm 1 mps 685 mmHg 87%
    21:00 +19°C° 0.4 mm 1 mps 685 mmHg 88%
    22:00 +17°C° 0.4 mm 2 mps 685 mmHg 90%
    23:00 +17°C° 0 mm 2 mps 685 mmHg 90%
    Show more